Find Starlink 30614

NORAD ID: 58098 Int'l Des: 2023-161 Owner: SPXS Country: US Constellation: starlink operational
LEOCIRCULAR

現在のビュー

3D地球を読み込み中...

About Starlink 30614

Starlink 30614 (NORAD 58098) is a starlink constellation satellite (v2 mini) launched Oct 21, 2023 by SPXS of US. It operates in LEO, CIRCULAR orbit with a mass of 730.00 kg.

Starlink 30614について

説明を読み込み中...

次回通過

Passes for default location (London). Set your location on the main map for personalized predictions.

高度履歴

Loading altitude history...

軌道要素

1 58098U 23161B 26173.83335648 -.00014104 00000-0 -40716-3 0 9995
2 58098 53.1597 36.9661 0001203 95.5779 213.5947 15.34393883 5756
Epoch: Jun 22, 2026 • Age: 16 hours

現在のステータス

高度 467.4 km
速度 7.63 km/s
衛星直下点 -15.90°S, 66.54°W
打ち上げ日 Oct 21, 2023
運用期間 2.6 years
タイプ internet

技術仕様

分類 Payload
質量 730.00 kg
乾燥質量 700.00 kg
総質量 730.00 kg
長さ 0.30 m
直径 4.10 m
スパン 29.00 m
形状 Box + pan
製造者 SPXS
バスタイプ Starlink V2M
フェーズステータス In Orbit
所有者/国 SPXS/US

Most Searched